This demonstration page uses our WeatherBlox Daily Observations layout. Learn more.

Left ArrowRight Arrow

38.80484, -77.04692

Hourly Observations for November 15, 2015

Temp ( °F °C ) Dew Point ( °F °C ) Humidity (%) Winds ( mph kmh ) Pressure ( in mb ) Visibility ( mi km ) Precip ( " mm )
12:52 am 00:52 Clear 40 4.4 31 -0.6 70 70 SW 5 7 30.37 1028 10 16 0.00 0.00
1:52 am 01:52 Clear 38 3.3 31 -0.6 76 76 SW 6 9 30.37 1028 10 16 0.00 0.00
2:52 am 02:52 Mostly Clear 37 2.8 30 -1.1 76 76 WSW 3 6 30.37 1028 10 16 0.00 0.00
3:52 am 03:52 Mostly Cloudy 38 3.3 30 -1.1 73 73 SSW 3 6 30.37 1029 10 16 0.00 0.00
4:52 am 04:52 Mostly Cloudy 37 2.8 30 -1.1 76 76 SSW 6 9 30.38 1029 10 16 0.00 0.00
5:52 am 05:52 Mostly Cloudy 38 3.3 31 -0.6 76 76 S 5 7 30.39 1029 10 16 0.00 0.00
6:52 am 06:52 Mostly Cloudy 37 2.8 30 -1.1 76 76 SSW 7 11 30.40 1030 10 16 0.00 0.00
7:52 am 07:52 Mostly Cloudy 41 5 30 -1.1 65 65 SW 5 7 30.42 1030 10 16 0.00 0.00
8:52 am 08:52 Partly Cloudy 46 7.8 30 -1.1 54 54 SSW 8 13 30.42 1030 10 16 0.00 0.00
9:52 am 09:52 Partly Cloudy 51 10.6 30 -1.1 44 44 SSW 10 17 30.42 1030 10 16 0.00 0.00
10:52 am 10:52 Partly Cloudy 55 12.8 30 -1.1 38 38 SSW 9 15 30.40 1030 10 16 0.00 0.00
11:52 am 11:52 Partly Cloudy 57 13.9 36 2.2 45 45 S 10 17 30.37 1028 10 16 0.00 0.00
12:52 pm 12:52 Partly Cloudy 59 15 36 2.2 42 42 S 12 19 30.34 1028 10 16 0.00 0.00
1:52 pm 13:52 Partly Cloudy 61 16.1 37 2.8 41 41 SSE 12 19 30.32 1027 10 16 0.00 0.00
2:52 pm 14:52 Partly Cloudy 61 16.1 37 2.8 41 41 SSE 14 22 30.30 1026 10 16 0.00 0.00
3:52 pm 15:52 Mostly Sunny 62 16.7 38 3.3 41 41 S 8 13 30.29 1026 10 16 0.00 0.00
4:52 pm 16:52 Mostly Sunny 61 16.1 32 0 34 34 SSW 9 15 30.30 1026 10 16 0.00 0.00
5:52 pm 17:52 Mostly Clear 60 15.6 31 -0.6 33 33 SSW 9 15 30.30 1026 10 16 0.00 0.00
6:52 pm 18:52 Clear 58 14.4 31 -0.6 36 36 SW 9 15 30.30 1026 10 16 0.00 0.00
7:52 pm 19:52 Clear 55 12.8 33 0.6 44 44 SSW 7 11 30.30 1026 10 16 0.00 0.00
8:52 pm 20:52 Clear 55 12.8 32 0 42 42 SW 5 7 30.30 1026 10 16 0.00 0.00
9:52 pm 21:52 Clear 54 12.2 30 -1.1 40 40 S 6 9 30.31 1026 10 16 0.00 0.00
10:52 pm 22:52 Clear 51 10.6 30 -1.1 44 44 SSW 7 11 30.30 1026 10 16 0.00 0.00
11:52 pm 23:52 Clear 51 10.6 34 1.1 52 52 S 8 13 30.29 1026 10 16 0.00 0.00

Powered by AerisWeather